GREYPAWS Weather Reports


Display with metric or nautical units.
time (UTC)temp
F
wind
direction
speed
MPH
gust
MPH
rain 1hr
in
rain 24hr
in
rain mn
in
humidity
%
barometer
mb
20260506014550 76 348 3.0 12.0 0.00 0.00 0.00 29 1005.5
20260506013049 76 15 6.0 12.0 0.00 0.00 0.00 28 1005.5
20260506011514 77 339 6.0 12.0 0.00 0.00 0.00 28 1005.3
20260506010058 78 310 5.0 11.0 0.00 0.00 0.00 28 1005.2
20260506004540 79 85 4.0 15.0 0.00 0.00 0.00 26 1005.1
20260506003054 79 323 5.0 11.0 0.00 0.00 0.00 25 1005.1
20260506001532 79 293 4.0 16.0 0.00 0.00 0.00 25 1005.1
20260506000021 79 321 6.0 13.0 0.00 0.00 0.00 26 1005.2
20260505234550 79 304 4.0 14.0 0.00 0.00 0.00 25 1005.2
20260505233042 79 304 5.0 15.0 0.00 0.00 0.00 25 1005.4
20260505231511 80 344 6.0 14.0 0.00 0.00 0.00 27 1005.4
20260505230002 79 281 7.0 13.0 0.00 0.00 0.00 28 1005.5
20260505224522 79 297 5.0 12.0 0.00 0.00 0.00 30 1005.5
20260505223020 78 288 6.0 15.0 0.00 0.00 0.00 30 1005.8
20260505221549 79 296 4.0 15.0 0.00 0.00 0.00 29 1005.9
20260505220040 79 310 1.0 13.0 0.00 0.00 0.00 28 1006.0
20260505214605 77 300 6.0 14.0 0.00 0.00 0.00 28 1006.4
20260505214502 77 267 5.0 14.0 0.00 0.00 0.00 28 1006.4
20260505213057 78 30 5.0 13.0 0.00 0.00 0.00 30 1006.6
20260505211515 77 322 2.0 11.0 0.00 0.00 0.00 31 1006.8
20260505210100 77 293 3.0 11.0 0.00 0.00 0.00 32 1006.9
20260505210002 77 286 4.0 11.0 0.00 0.00 0.00 32 1006.9
20260505204524 77 281 5.0 13.0 0.00 0.00 0.00 34 1007.0
20260505203021 75 302 4.0 12.0 0.00 0.00 0.00 33 1007.2
20260505201605 75 13 3.0 7.0 0.00 0.00 0.00 33 1007.3
20260505201502 75 310 2.0 7.0 0.00 0.00 0.00 33 1007.3
20260505200044 75 5 3.0 9.0 0.00 0.00 0.00 34 1007.5
20260505194528 74 300 7.0 14.0 0.00 0.00 0.00 34 1007.6
20260505193028 73 273 3.0 7.0 0.00 0.00 0.00 34 1007.7
20260505191603 72 283 5.0 9.0 0.00 0.00 0.00 33 1007.8
20260505190043 72 258 3.0 9.0 0.00 0.00 0.00 33 1007.9
20260505184531 72 213 3.0 12.0 0.00 0.00 0.00 33 1008.1
20260505183013 72 94 2.0 8.0 0.00 0.00 0.00 36 1008.2
20260505181540 71 99 0.0 4.0 0.00 0.00 0.00 36 1008.3
20260505180037 71 246 1.0 6.0 0.00 0.00 0.00 35 1008.5
20260505174601 72 248 3.0 6.0 0.00 0.00 0.00 35 1008.5
20260505173046 73 221 0.0 2.0 0.00 0.00 0.00 36 1008.5
20260505171510 71 234 0.0 5.0 0.00 0.00 0.00 36 1008.3
20260505170055 71 120 0.0 5.0 0.00 0.00 0.00 36 1008.2
20260505164528 71 244 1.0 3.0 0.00 0.00 0.00 35 1008.1
20260505163014 71 83 1.0 7.0 0.00 0.00 0.00 35 1008.0
20260505161554 70 60 0.0 7.0 0.00 0.00 0.00 36 1008.0
20260505153046 68 50 1.0 8.0 0.00 0.00 0.00 41 1007.6
20260505151527 67 229 0.0 5.0 0.00 0.00 0.00 48 1007.6
20260505124542 52 288 0.0 2.0 0.00 0.00 0.00 64 1005.8
20260505123036 53 273 0.0 2.0 0.00 0.00 0.00 63 1005.6
20260505121530 54 273 0.0 2.0 0.00 0.00 0.00 61 1005.2
20260505120036 54 256 0.0 2.0 0.00 0.00 0.00 60 1004.9
20260505114518 54 186 0.0 0.0 0.00 0.00 0.00 59 1004.9
20260505113058 55 186 0.0 2.0 0.00 0.00 0.00 58 1004.8
20260505113006 55 186 0.0 2.0 0.00 0.00 0.00 58 1004.7
20260505111550 56 297 0.0 0.0 0.00 0.00 0.00 58 1004.5
20260505101549 55 294 1.0 5.0 0.00 0.00 0.00 55 1003.6
20260505100054 57 273 1.0 5.0 0.00 0.00 0.00 54 1003.6
20260505094511 58 284 2.0 10.0 0.00 0.00 0.00 52 1003.5
20260505093010 58 298 4.0 10.0 0.00 0.00 0.00 51 1003.3
20260505091508 58 304 7.0 11.0 0.00 0.00 0.00 50 1003.2
20260505090010 58 291 5.0 8.0 0.00 0.00 0.00 48 1003.2
20260505084605 60 281 2.0 8.0 0.00 0.00 0.00 46 1003.1
20260505083046 61 276 6.0 11.0 0.00 0.00 0.00 46 1003.0
20260505081600 61 290 6.0 10.0 0.00 0.00 0.00 45 1002.9
20260505080046 61 300 5.0 8.0 0.00 0.00 0.00 44 1002.9
20260505074530 62 296 3.0 10.0 0.00 0.00 0.00 42 1002.9
20260505073037 64 312 3.0 11.0 0.00 0.00 0.00 41 1002.9
20260505071510 64 290 3.0 11.0 0.00 0.00 0.00 42 1002.7
20260505070016 64 280 4.0 14.0 0.00 0.00 0.00 42 1002.6
20260505064550 64 304 2.0 9.0 0.00 0.00 0.00 42 1002.4
20260505063047 64 298 5.0 12.0 0.00 0.00 0.00 41 1002.3
20260505061540 65 289 2.0 9.0 0.00 0.00 0.00 41 1002.2
20260505060030 66 287 2.0 9.0 0.00 0.00 0.00 40 1002.2
20260505054600 66 309 3.0 11.0 0.00 0.00 0.00 40 1002.2
20260505054502 66 276 3.0 11.0 0.00 0.00 0.00 40 1002.2
20260505053004 66 355 1.0 7.0 0.00 0.00 0.00 42 1002.1
20260505051521 66 19 2.0 6.0 0.00 0.00 0.00 43 1002.1
20260505041538 66 315 1.0 6.0 0.00 0.00 0.00 43 1001.8
20260505040035 68 308 2.0 5.0 0.00 0.00 0.00 42 1001.6
20260505034553 69 291 1.0 6.0 0.00 0.00 0.00 41 1001.4
20260505033044 68 338 0.0 4.0 0.00 0.00 0.00 41 1001.3
20260505031544 70 304 2.0 5.0 0.00 0.00 0.00 37 1001.1
20260505030016 72 293 1.0 5.0 0.00 0.00 0.00 34 1000.9
20260505024522 75 329 2.0 5.0 0.00 0.00 0.00 31 1000.8
20260505023019 76 11 1.0 10.0 0.00 0.00 0.00 30 1000.7
20260505021516 77 9 2.0 9.0 0.00 0.00 0.00 30 1000.6
20260505020100 78 312 1.0 9.0 0.00 0.00 0.00 29 1000.6
20260505020002 78 281 1.0 9.0 0.00 0.00 0.00 29 1000.6